WE0DX-1 Weather Reports


Display with metric or nautical units.
time (UTC)temp
F
wind
direction
speed
MPH
gust
MPH
rain 1hr
in
rain 24hr
in
rain mn
in
humidity
%
barometer
mb
20260508141038 60 91 0.0 0.0 0.00 0.00 0.00 67 1009.9
20260508140535 60 86 0.0 0.0 0.00 0.00 0.00 67 1009.8
20260508140031 60 115 0.0 0.0 0.00 0.00 0.00 68 1009.7
20260508135527 59 93 0.0 0.0 0.00 0.00 0.00 68 1009.5
20260508135024 59 97 0.0 0.0 0.00 0.00 0.00 68 1009.5
20260508134521 59 104 0.0 0.0 0.00 0.00 0.00 68 1009.6
20260508134018 59 169 1.0 2.0 0.00 0.00 0.00 68 1009.3
20260508133514 58 145 0.0 0.0 0.00 0.00 0.00 70 1009.3
20260508133011 58 105 0.0 0.0 0.00 0.00 0.00 70 1009.4
20260508132510 58 104 0.0 1.0 0.00 0.00 0.00 71 1009.4
20260508132006 58 85 0.0 0.0 0.00 0.00 0.00 71 1009.4
20260508131501 57 66 0.0 1.0 0.00 0.00 0.00 71 1009.2
20260508130958 57 102 0.0 0.0 0.00 0.00 0.00 72 1009.0
20260508130455 57 104 0.0 0.0 0.00 0.00 0.00 73 1009.4
20260508125950 57 95 0.0 0.0 0.00 0.00 0.00 71 1009.2
20260508125447 57 61 0.0 0.0 0.00 0.00 0.00 71 1009.8
20260508124945 57 62 0.0 1.0 0.00 0.00 0.00 71 1009.6
20260508124443 57 87 0.0 0.0 0.00 0.00 0.00 72 1009.5
20260508123940 57 100 0.0 0.0 0.00 0.00 0.00 74 1009.5
20260508123439 57 133 0.0 0.0 0.00 0.00 0.00 76 1009.2
20260508122934 57 87 0.0 0.0 0.00 0.00 0.00 74 1009.4
20260508122431 57 97 0.0 0.0 0.00 0.00 0.00 73 1009.0
20260508121928 57 89 0.0 0.0 0.00 0.00 0.00 72 1009.4
20260508121427 57 89 0.0 0.0 0.00 0.00 0.00 73 1009.3
20260508120924 57 89 0.0 0.0 0.00 0.00 0.00 72 1008.8
20260508120422 57 89 0.0 0.0 0.00 0.00 0.00 70 1009.4
20260508115919 58 89 0.0 0.0 0.00 0.00 0.00 70 1009.4
20260508115418 58 104 0.0 0.0 0.00 0.00 0.00 68 1009.0
20260508114913 58 152 0.0 1.0 0.00 0.00 0.00 65 1009.4
20260508114410 58 100 0.0 0.0 0.00 0.00 0.00 66 1009.2
20260508113907 58 194 0.0 0.0 0.00 0.00 0.00 65 1008.7
20260508113405 58 43 0.0 1.0 0.00 0.00 0.00 66 1008.9
20260508112902 58 47 0.0 0.0 0.00 0.00 0.00 65 1008.6
20260508112358 58 328 0.0 1.0 0.00 0.00 0.00 65 1008.6
20260508111855 58 139 1.0 1.0 0.00 0.00 0.00 65 1008.4
20260508111352 58 130 0.0 1.0 0.00 0.00 0.00 65 1008.2
20260508110849 58 153 2.0 2.0 0.00 0.00 0.00 65 1008.3
20260508110347 58 223 0.0 1.0 0.00 0.00 0.00 65 1008.5
20260508105846 58 114 0.0 0.0 0.00 0.00 0.00 64 1008.6
20260508105343 58 251 0.0 2.0 0.00 0.00 0.00 65 1008.6
20260508104840 58 119 0.0 0.0 0.00 0.00 0.00 64 1008.2
20260508104337 58 172 0.0 0.0 0.00 0.00 0.00 64 1008.1
20260508103835 59 152 0.0 2.0 0.00 0.00 0.00 64 1008.3
20260508103331 59 107 0.0 3.0 0.00 0.00 0.00 63 1008.2
20260508102829 59 178 2.0 2.0 0.00 0.00 0.00 63 1008.1
20260508102327 59 142 1.0 2.0 0.00 0.00 0.00 63 1008.4
20260508101824 59 123 0.0 1.0 0.00 0.00 0.00 63 1008.5
20260508101321 59 123 0.0 2.0 0.00 0.00 0.00 63 1008.2
20260508100818 59 115 0.0 0.0 0.00 0.00 0.00 63 1008.4
20260508100317 59 199 2.0 2.0 0.00 0.00 0.00 62 1008.4
20260508095812 59 196 0.0 1.0 0.00 0.00 0.00 63 1008.3
20260508095310 59 192 1.0 2.0 0.00 0.00 0.00 62 1008.2
20260508094806 59 108 0.0 1.0 0.00 0.00 0.00 63 1008.2
20260508094304 59 176 0.0 1.0 0.00 0.00 0.00 62 1008.2
20260508093801 59 175 1.0 2.0 0.00 0.00 0.00 63 1008.3
20260508093258 58 149 0.0 0.0 0.00 0.00 0.00 63 1008.3
20260508092755 59 213 0.0 0.0 0.00 0.00 0.00 63 1008.3
20260508092253 58 132 0.0 0.0 0.00 0.00 0.00 63 1008.4
20260508091751 58 174 0.0 2.0 0.00 0.00 0.00 64 1008.4
20260508091248 58 130 0.0 0.0 0.00 0.00 0.00 64 1008.1
20260508090745 58 73 0.0 1.0 0.00 0.00 0.00 63 1008.3
20260508090243 58 110 0.0 1.0 0.00 0.00 0.00 64 1008.2
20260508085738 58 186 0.0 1.0 0.00 0.00 0.00 64 1008.2
20260508085236 58 197 0.0 1.0 0.00 0.00 0.00 64 1008.2
20260508084732 58 189 1.0 2.0 0.00 0.00 0.00 65 1008.1
20260508084230 58 157 1.0 1.0 0.00 0.00 0.00 64 1008.5
20260508083727 58 201 0.0 0.0 0.00 0.00 0.00 64 1008.3
20260508083225 58 108 0.0 1.0 0.00 0.00 0.00 64 1008.4
20260508082719 58 146 2.0 5.0 0.00 0.00 0.00 64 1008.3
20260508082217 58 157 1.0 2.0 0.00 0.00 0.00 65 1008.5
20260508081714 58 117 0.0 0.0 0.00 0.00 0.00 64 1008.4
20260508081210 58 194 0.0 2.0 0.00 0.00 0.00 64 1008.6
20260508080708 58 215 2.0 2.0 0.00 0.00 0.00 64 1008.7
20260508080206 58 129 0.0 0.0 0.00 0.00 0.00 63 1008.6
20260508075702 58 191 0.0 3.0 0.00 0.00 0.00 64 1008.8
20260508075159 58 176 2.0 3.0 0.00 0.00 0.00 64 1008.7
20260508074657 58 139 0.0 3.0 0.00 0.00 0.00 64 1009.0
20260508074154 58 199 0.0 2.0 0.00 0.00 0.00 63 1009.2
20260508073651 58 113 0.0 0.0 0.00 0.00 0.00 63 1009.3
20260508073149 58 188 1.0 2.0 0.00 0.00 0.00 63 1009.2
20260508072644 58 163 0.0 0.0 0.00 0.00 0.00 63 1009.2
20260508072142 59 196 0.0 1.0 0.00 0.00 0.00 62 1009.4
20260508071639 59 191 0.0 0.0 0.00 0.00 0.00 62 1009.0
20260508071137 59 163 1.0 3.0 0.00 0.00 0.00 62 1009.4
20260508070634 59 208 0.0 0.0 0.00 0.00 0.00 62 1009.4
20260508070133 59 132 0.0 2.0 0.00 0.00 0.00 62 1009.6
20260508065630 59 203 0.0 0.0 0.00 0.00 0.00 61 1009.8
20260508065128 59 160 0.0 2.0 0.00 0.00 0.00 61 1009.8
20260508064625 59 116 0.0 0.0 0.00 0.00 0.00 61 1009.6
20260508064123 59 132 0.0 2.0 0.00 0.00 0.00 61 1009.9
20260508063620 59 113 0.0 2.0 0.00 0.00 0.00 61 1010.1
20260508063119 59 123 0.0 0.0 0.00 0.00 0.00 61 1010.0
20260508062616 59 152 1.0 2.0 0.00 0.00 0.00 60 1009.8
20260508062112 60 119 0.0 0.0 0.00 0.00 0.00 60 1010.0
20260508061609 59 169 0.0 0.0 0.00 0.00 0.00 60 1010.0
20260508061107 59 121 0.0 0.0 0.00 0.00 0.00 61 1010.2
20260508060603 60 109 0.0 0.0 0.00 0.00 0.00 61 1010.1
20260508060100 60 119 0.0 2.0 0.00 0.00 0.00 60 1010.2
20260508055551 60 161 0.0 0.0 0.00 0.00 0.00 60 1010.2
20260508055048 60 114 0.0 0.0 0.00 0.00 0.00 60 1010.1
20260508054544 60 110 0.0 0.0 0.00 0.00 0.00 60 1010.1
20260508054042 60 185 1.0 2.0 0.00 0.00 0.00 59 1010.1
20260508053538 60 104 0.0 0.0 0.00 0.00 0.00 59 1010.2
20260508053037 61 99 0.0 0.0 0.00 0.00 0.00 58 1010.1
20260508052534 61 192 0.0 0.0 0.00 0.00 0.00 58 1010.2
20260508052030 61 126 0.0 0.0 0.00 0.00 0.00 58 1010.2
20260508051527 61 101 0.0 0.0 0.00 0.00 0.00 58 1010.1
20260508051022 61 131 0.0 0.0 0.00 0.00 0.00 57 1009.9
20260508050519 61 90 0.0 0.0 0.00 0.00 0.00 57 1010.1
20260508050016 61 294 1.0 2.0 0.00 0.00 0.00 57 1010.1
20260508045512 61 103 0.0 0.0 0.00 0.00 0.00 57 1010.3
20260508045010 61 104 0.0 1.0 0.00 0.00 0.00 57 1010.2
20260508044507 61 176 0.0 2.0 0.00 0.00 0.00 56 1010.1
20260508044003 62 94 0.0 1.0 0.00 0.00 0.00 56 1010.3
20260508043459 62 266 2.0 3.0 0.00 0.00 0.00 55 1010.4
20260508042955 62 156 1.0 2.0 0.00 0.00 0.00 56 1010.4
20260508042454 62 123 1.0 1.0 0.00 0.00 0.00 55 1010.4
20260508041950 62 94 0.0 0.0 0.00 0.00 0.00 55 1010.3
20260508041447 62 152 0.0 0.0 0.00 0.00 0.00 55 1010.4
20260508040944 62 152 0.0 0.0 0.00 0.00 0.00 55 1010.2
20260508040441 62 136 0.0 0.0 0.00 0.00 0.00 55 1010.5
20260508035938 62 150 0.0 0.0 0.00 0.00 0.00 55 1010.4
20260508035435 62 113 0.0 0.0 0.00 0.00 0.00 54 1010.2
20260508034932 62 95 0.0 0.0 0.00 0.00 0.00 54 1010.4
20260508034430 63 126 0.0 2.0 0.00 0.00 0.00 54 1010.3
20260508033926 63 130 0.0 1.0 0.00 0.00 0.00 53 1010.6
20260508033424 62 116 0.0 3.0 0.00 0.00 0.00 53 1010.1
20260508032921 62 133 0.0 6.0 0.00 0.00 0.00 54 1010.3
20260508032418 62 91 0.0 0.0 0.00 0.00 0.00 54 1010.1
20260508031915 62 101 0.0 0.0 0.00 0.00 0.00 54 1010.3
20260508031413 62 108 0.0 0.0 0.00 0.00 0.00 54 1010.2
20260508030908 62 101 0.0 0.0 0.00 0.00 0.00 54 1010.1
20260508030406 63 106 0.0 0.0 0.00 0.00 0.00 54 1010.0
20260508025903 63 89 0.0 1.0 0.00 0.00 0.00 54 1009.9
20260508025359 63 94 0.0 0.0 0.00 0.00 0.00 54 1010.0
20260508024856 63 116 0.0 0.0 0.00 0.00 0.00 53 1010.0
20260508024353 63 128 0.0 0.0 0.00 0.00 0.00 54 1009.7
20260508023850 63 107 0.0 0.0 0.00 0.00 0.00 54 1009.9
20260508023346 63 128 0.0 0.0 0.00 0.00 0.00 53 1009.9
20260508022842 63 136 0.0 0.0 0.00 0.00 0.00 53 1009.9
20260508022333 64 91 0.0 0.0 0.00 0.00 0.00 53 1009.6
20260508021830 64 132 0.0 0.0 0.00 0.00 0.00 52 1009.7
20260508021326 64 108 0.0 0.0 0.00 0.00 0.00 52 1009.5
20260508020822 64 114 0.0 0.0 0.00 0.00 0.00 52 1009.6
20260508020320 64 174 0.0 1.0 0.00 0.00 0.00 52 1009.5
20260508015817 64 120 0.0 0.0 0.00 0.00 0.00 51 1009.4
20260508015315 64 132 0.0 0.0 0.00 0.00 0.00 51 1009.3
20260508014811 64 145 0.0 2.0 0.00 0.00 0.00 51 1009.3
20260508014308 65 113 0.0 0.0 0.00 0.00 0.00 51 1009.4
20260508013804 65 129 0.0 0.0 0.00 0.00 0.00 50 1009.4
20260508013300 65 117 0.0 0.0 0.00 0.00 0.00 50 1009.4
20260508012757 65 110 0.0 0.0 0.00 0.00 0.00 50 1009.3
20260508012255 65 126 0.0 0.0 0.00 0.00 0.00 50 1009.4
20260508011753 65 100 0.0 0.0 0.00 0.00 0.00 49 1009.0
20260508011250 66 104 0.0 2.0 0.00 0.00 0.00 49 1009.3
20260508010747 66 125 0.0 0.0 0.00 0.00 0.00 49 1009.4
20260508010245 66 90 0.0 0.0 0.00 0.00 0.00 48 1009.3
20260508005742 66 110 0.0 0.0 0.00 0.00 0.00 49 1009.2
20260508005238 66 126 0.0 0.0 0.00 0.00 0.00 49 1009.2
20260508004734 66 109 0.0 0.0 0.00 0.00 0.00 49 1009.2
20260508004230 67 139 0.0 0.0 0.00 0.00 0.00 48 1009.2
20260508003727 67 94 0.0 0.0 0.00 0.00 0.00 48 1009.3
20260508003225 67 100 0.0 0.0 0.00 0.00 0.00 47 1009.3
20260508002721 67 102 0.0 0.0 0.00 0.00 0.00 47 1009.3
20260508002219 68 182 0.0 0.0 0.00 0.00 0.00 46 1009.4
20260508001714 68 116 0.0 0.0 0.00 0.00 0.00 46 1009.2
20260508001209 68 103 0.0 0.0 0.00 0.00 0.00 45 1009.2
20260508000706 68 128 0.0 2.0 0.00 0.00 0.00 44 1009.5
20260508000205 68 97 0.0 0.0 0.00 0.00 0.00 45 1009.2
20260507235659 68 138 0.0 0.0 0.00 0.00 0.00 44 1009.4
20260507235157 68 142 1.0 2.0 0.00 0.00 0.00 45 1009.6
20260507234654 68 192 1.0 1.0 0.00 0.00 0.00 44 1009.6
20260507234150 68 127 0.0 2.0 0.00 0.00 0.00 44 1009.6
20260507233647 68 203 2.0 3.0 0.00 0.00 0.00 43 1009.7
20260507233146 69 188 1.0 3.0 0.00 0.00 0.00 43 1009.6
20260507232642 69 189 1.0 3.0 0.00 0.00 0.00 42 1009.8
20260507232139 69 206 2.0 5.0 0.00 0.00 0.00 43 1009.7
20260507231635 69 191 1.0 2.0 0.00 0.00 0.00 43 1009.7
20260507231132 69 177 1.0 2.0 0.00 0.00 0.00 42 1009.9
20260507230628 69 241 3.0 5.0 0.00 0.00 0.00 42 1010.0
20260507230126 70 264 1.0 3.0 0.00 0.00 0.00 43 1010.1
20260507225626 70 118 0.0 1.0 0.00 0.00 0.00 42 1009.8
20260507225122 69 142 1.0 3.0 0.00 0.00 0.00 44 1009.9
20260507224618 70 223 1.0 3.0 0.00 0.00 0.00 42 1010.1
20260507224115 69 12 1.0 2.0 0.00 0.00 0.00 45 1010.2
20260507223611 69 201 0.0 3.0 0.00 0.00 0.00 44 1010.1
20260507223108 69 276 3.0 5.0 0.00 0.00 0.00 43 1010.2
20260507222605 69 245 3.0 5.0 0.00 0.00 0.00 43 1010.2
20260507222102 69 221 2.0 5.0 0.00 0.00 0.00 43 1010.0
20260507221558 69 176 1.0 2.0 0.00 0.00 0.00 43 1010.3
20260507221055 69 212 3.0 5.0 0.00 0.00 0.00 43 1010.3
20260507220552 69 191 2.0 3.0 0.00 0.00 0.00 44 1010.3
20260507220049 69 123 1.0 2.0 0.00 0.00 0.00 44 1010.3
20260507215545 69 221 2.0 5.0 0.00 0.00 0.00 43 1010.1
20260507215044 69 241 2.0 5.0 0.00 0.00 0.00 43 1010.3
20260507214540 68 228 2.0 5.0 0.00 0.00 0.00 45 1010.3
20260507214036 68 201 1.0 3.0 0.00 0.00 0.00 46 1010.4
20260507213533 68 213 2.0 5.0 0.00 0.00 0.00 45 1010.5
20260507213030 68 328 2.0 5.0 0.00 0.00 0.00 46 1010.5
20260507212526 69 202 3.0 5.0 0.00 0.00 0.00 46 1010.6
20260507212022 68 195 1.0 5.0 0.00 0.00 0.00 46 1010.8
20260507211519 68 89 3.0 8.0 0.00 0.00 0.00 46 1010.5
20260507211015 68 242 3.0 5.0 0.00 0.00 0.00 46 1010.7
20260507210513 68 215 5.0 7.0 0.00 0.00 0.00 46 1010.8
20260507210010 68 207 1.0 5.0 0.00 0.00 0.00 47 1010.9
20260507205506 69 184 2.0 5.0 0.00 0.00 0.00 45 1010.8
20260507205002 68 193 2.0 5.0 0.00 0.00 0.00 46 1011.0
20260507204459 69 231 5.0 8.0 0.00 0.00 0.00 45 1011.5
20260507203957 68 211 2.0 5.0 0.00 0.00 0.00 47 1011.3
20260507203454 68 153 3.0 6.0 0.00 0.00 0.00 46 1011.4
20260507202950 68 219 3.0 8.0 0.00 0.00 0.00 46 1011.5
20260507202447 69 216 3.0 6.0 0.00 0.00 0.00 46 1011.6
20260507201943 68 148 1.0 6.0 0.00 0.00 0.00 49 1011.5
20260507201438 68 214 2.0 5.0 0.00 0.00 0.00 49 1011.5
20260507200935 67 267 3.0 5.0 0.00 0.00 0.00 48 1011.8
20260507200431 66 208 3.0 6.0 0.00 0.00 0.00 49 1011.8
20260507195927 67 195 2.0 5.0 0.00 0.00 0.00 48 1011.8
20260507195425 67 197 1.0 8.0 0.00 0.00 0.00 48 1012.0
20260507194922 67 265 3.0 5.0 0.00 0.00 0.00 48 1012.2
20260507194418 67 233 2.0 6.0 0.00 0.00 0.00 49 1012.1
20260507193915 67 224 1.0 5.0 0.00 0.00 0.00 49 1012.3
20260507193412 65 274 2.0 7.0 0.00 0.00 0.00 50 1012.4
20260507192908 66 221 3.0 5.0 0.00 0.00 0.00 49 1012.5
20260507192404 67 224 4.0 7.0 0.00 0.00 0.00 49 1012.5
20260507191901 66 210 2.0 3.0 0.00 0.00 0.00 49 1012.3
20260507191357 66 267 1.0 5.0 0.00 0.00 0.00 51 1012.4
20260507190854 66 252 2.0 3.0 0.00 0.00 0.00 51 1012.4
20260507190352 65 138 3.0 7.0 0.00 0.00 0.00 51 1012.5
20260507185851 65 217 2.0 5.0 0.00 0.00 0.00 50 1012.8
20260507185348 65 249 6.0 9.0 0.00 0.00 0.00 50 1012.7
20260507184844 64 178 1.0 7.0 0.00 0.00 0.00 49 1013.0
20260507184342 64 266 3.0 5.0 0.00 0.00 0.00 52 1013.0
20260507183839 65 208 3.0 6.0 0.00 0.00 0.00 51 1013.1
20260507183336 66 234 3.0 5.0 0.00 0.00 0.00 50 1013.2
20260507182834 64 226 1.0 7.0 0.00 0.00 0.00 51 1013.1
20260507182329 65 266 7.0 7.0 0.00 0.00 0.00 50 1013.1
20260507181826 65 225 5.0 8.0 0.00 0.00 0.00 50 1013.3
20260507181321 65 226 3.0 5.0 0.00 0.00 0.00 50 1013.4
20260507180819 64 262 3.0 7.0 0.00 0.00 0.00 50 1013.5
20260507180316 63 184 2.0 7.0 0.00 0.00 0.00 52 1013.6
20260507175811 63 252 3.0 6.0 0.00 0.00 0.00 52 1013.6
20260507175308 62 256 3.0 6.0 0.00 0.00 0.00 54 1013.9
20260507174805 63 188 2.0 5.0 0.00 0.00 0.00 51 1013.6
20260507174303 63 258 1.0 3.0 0.00 0.00 0.00 53 1013.8
20260507173801 63 206 5.0 7.0 0.00 0.00 0.00 52 1013.8
20260507173258 63 348 3.0 5.0 0.00 0.00 0.00 52 1014.0
20260507172754 64 233 3.0 6.0 0.00 0.00 0.00 51 1013.9
20260507172251 63 260 5.0 7.0 0.00 0.00 0.00 51 1014.1
20260507171746 62 218 2.0 3.0 0.00 0.00 0.00 53 1014.1
20260507171243 63 239 1.0 3.0 0.00 0.00 0.00 53 1014.3
20260507170740 62 224 4.0 8.0 0.00 0.00 0.00 53 1013.9
20260507170237 62 237 3.0 6.0 0.00 0.00 0.00 53 1014.2
20260507165732 62 231 2.0 8.0 0.00 0.00 0.00 53 1014.5
20260507165229 62 269 2.0 5.0 0.00 0.00 0.00 53 1014.5
20260507164725 61 206 4.0 6.0 0.00 0.00 0.00 53 1014.6
20260507164223 62 236 4.0 6.0 0.00 0.00 0.00 53 1014.7
20260507163720 62 255 5.0 6.0 0.00 0.00 0.00 53 1014.8
20260507163218 62 190 2.0 6.0 0.00 0.00 0.00 53 1014.6
20260507162713 62 298 3.0 5.0 0.00 0.00 0.00 54 1014.7
20260507162209 61 280 2.0 6.0 0.00 0.00 0.00 55 1014.8
20260507161706 61 246 3.0 6.0 0.00 0.00 0.00 56 1014.9
20260507161203 60 212 1.0 3.0 0.00 0.00 0.00 58 1015.0
20260507160659 61 171 3.0 6.0 0.00 0.00 0.00 55 1015.0
20260507160156 60 248 3.0 6.0 0.00 0.00 0.00 56 1014.9
20260507155651 60 271 5.0 7.0 0.00 0.00 0.00 56 1014.9
20260507155148 60 225 3.0 5.0 0.00 0.00 0.00 59 1014.8
20260507154644 59 247 2.0 9.0 0.00 0.00 0.00 59 1015.0
20260507154143 60 271 5.0 7.0 0.00 0.00 0.00 58 1015.1
20260507153639 60 165 4.0 6.0 0.00 0.00 0.00 57 1015.1
20260507153135 60 193 4.0 6.0 0.00 0.00 0.00 59 1015.1
20260507152632 59 219 4.0 7.0 0.00 0.00 0.00 59 1015.1
20260507152127 59 213 3.0 6.0 0.00 0.00 0.00 59 1015.2
20260507151624 59 194 2.0 5.0 0.00 0.00 0.00 61 1015.2
20260507151121 59 194 3.0 5.0 0.00 0.00 0.00 62 1015.4
20260507150618 58 201 3.0 5.0 0.00 0.00 0.00 60 1015.2
20260507150114 58 206 2.0 3.0 0.00 0.00 0.00 61 1015.5
20260507145609 58 265 4.0 5.0 0.00 0.00 0.00 60 1015.5
20260507145108 58 246 3.0 6.0 0.00 0.00 0.00 60 1015.7
20260507144603 58 156 0.0 3.0 0.00 0.00 0.00 61 1015.5
20260507144102 57 228 3.0 5.0 0.00 0.00 0.00 62 1015.6
20260507143558 58 242 3.0 5.0 0.00 0.00 0.00 60 1015.7
20260507143056 58 279 1.0 2.0 0.00 0.00 0.00 60 1015.5
20260507142555 57 219 2.0 3.0 0.00 0.00 0.00 61 1015.6
20260507142053 57 233 4.0 5.0 0.00 0.00 0.00 60 1015.5
20260507141549 57 240 4.0 5.0 0.00 0.00 0.00 61 1015.5